Regional Weather Roundup
Issued by NWS Kansas City/Pleasant Hill, MO

Home | Current Version | Previous Version | Text Only | Print | Product List | Glossary On
Versions: 1 2 3 4 5 6 7 8 9 10 11 12 13 14 15 16 17 18 19 20 21 22 23 24 25 26 27 28 29 30 31 32 33 34 35 36 37 38 39 40 41 42 43 44 45 46 47 48 49 50
000
ASUS43 KEAX 281810
RWREAX

WEATHER ROUNDUP FOR EASTERN KANSAS AND NORTHWEST MISSOURI
NATIONAL WEATHER SERVICE KANSAS CITY/PLEASANT HILL MO
100 PM CDT THU MAY 28 2015

KSZ040-057-103>105-MOZ028-029-037-043-281900-
...KANSAS CITY METROPOLITAN AREA...

CITY           SKY/WX    TMP DP  RH WIND       PRES   REMARKS
K.C. INTL      CLOUDY    67  64  90 SE9       30.09S
6HR MIN TEMP:  62; 6HR MAX TEMP:  68; 6HR PCP:  0.24;

K.C. DOWNTOWN  CLOUDY    71  63  75 SE7       30.08S
6HR MIN TEMP:  65; 6HR MAX TEMP:  71; 6HR PCP:  0.34;

LEES SUMMIT    RAIN      68  65  90 S6        30.09F FOG
6HR MIN TEMP:  64; 6HR MAX TEMP:  69; 6HR PCP:  0.15;

OLATHE - IXD   TSTM      68  64  87 S12       30.11R
6HR MIN TEMP:  63; 6HR MAX TEMP:  71; 6HR PCP:  0.02;

OLATHE - OJC   TSTM      68  64  87 S23G36    30.10R VSB 1
6HR MIN TEMP:  64; 6HR MAX TEMP:  71; 6HR PCP:  0.01;

LAWRENCE       LGT RAIN  70  65  84 SE9       30.09R

$$

MOZ001>008-011>017-020>025-030>033-038>040-044>046-053-054-281900-
...NORTHERN AND CENTRAL MISSOURI...

CITY           SKY/WX    TMP DP  RH WIND       PRES   REMARKS
ST. JOSEPH     CLOUDY    69  65  86 S8        30.08R
6HR MIN TEMP:  63; 6HR MAX TEMP:  69; 6HR PCP:  0.19;

MOSBY          CLOUDY    70  64  83 SE5       30.09R
WARRENSBURG    CLOUDY    75  64  69 CALM      30.09S
WHITEMAN AFB   PTSUNNY   78  67  68 S7        30.07F
6HR MIN TEMP:  63; 6HR MAX TEMP:  78;

CLINTON        CLOUDY    81  66  61 S7        30.08F
SEDALIA        CLOUDY    81  68  64 SE8       30.09F
6HR MIN TEMP:  65; 6HR MAX TEMP:  81;

WARSAW         NOT AVBL
CHILLICOTHE      N/A     72  65  78 SE7       30.09S
6HR MIN TEMP:  64; 6HR MAX TEMP:  72; 6HR PCP:  0.34;

KIRKSVILLE     PTSUNNY   76  63  64 SE12      30.12F
6HR MIN TEMP:  64; 6HR MAX TEMP:  79;


$$

MOZ041-047>049-056>058-063>065-088>090-097-281900-
...EASTERN AND SOUTHERN MISSOURI...

CITY           SKY/WX    TMP DP  RH WIND       PRES   REMARKS
ST. LOUIS INTL PTSUNNY   84  67  56 S7        30.14S
6HR MIN TEMP:  67; 6HR MAX TEMP:  84;

SPIRIT OF STL  PTSUNNY   82  67  60 SE6       30.11F
COLUMBIA       TSTM      72  67  84 SW25G40   30.11S VSB 1
JEFFERSON CITY PTSUNNY   79  67  66 S10       30.10S
ROLLA          PTSUNNY   77  68  73 S14G20    30.12F
OSAGE BEACH    CLOUDY    79  70  73 SE10      30.10F
SPRINGFIELD    CLOUDY    75  68  78 S10       30.12S
BRANSON        CLOUDY    77  68  73 S7        30.15F
JOPLIN         TSTM      65  64  97 W9        30.13F
WEST PLAINS    CLOUDY    74  65  73 VRB5G20   30.18F

$$

IAZ060-094-KSZ022-034>040-054-083-096-NEZ052-066-093-281900-
...KANSAS...SOUTHEAST NEBRASKA AND IOWA...

CITY           SKY/WX    TMP DP  RH WIND       PRES   REMARKS
TOPEKA         CLOUDY    70  65  84 SE12      30.06F
6HR MIN TEMP:  64; 6HR MAX TEMP:  70; 6HR PCP:  0.06;

MANHATTAN      CLOUDY    74  63  68 S17G25    30.03F
EMPORIA        CLOUDY    69  65  86 S15G23    30.06S
CHANUTE        LGT RAIN  66  65  96 S12       30.12S
WICHITA        CLOUDY    69  63  81 SE21G28   30.05S
OMAHA          CLOUDY    71  61  70 S13       30.03S
LINCOLN        CLOUDY    69  63  81 SE13      30.03S
FALLS CITY     LGT RAIN  68  64  87 SE13      30.06R
LAMONI         CLOUDY    72  61  68 SE8       30.08F
DES MOINES     CLOUDY    77  58  51 S13       30.07F

$$




USA.gov is the U.S. government's official web portal to all federal, state and local government web resources and services.